User: anonymous   Login
Location: Gollag?dem
(16.8053°N, 80.8024°E)
Time: 13:43:01
(UTC+00:00)
Language:

SPOT 3 Rocket - Orbit

View from above orbital plane
View from above orbital plane
View from above satellite
View from above satellite

Ground track
Ground track

The orbit data is extracted from the following two-line orbital elements,

1 22830U 93061H   20294.91126041 -.00000025 +00000-0 +77598-5 0  9994
2 22830 098.7507 345.1822 0010109 318.4969 041.5445 14.31457594413025
Epoch (UTC): 20 October 2020 21:52:12
Eccentricity: 0.0010109
inclination: 98.7507°
perigee height: 779 km
apogee height: 794 km
right ascension of ascending node: 345.1822°
argument of perigee: 318.4969°
revolutions per day: 14.31457594
mean anomaly at epoch: 41.5445°
orbit number at epoch: 41302

The dashed part of the orbit path shows where the satellite is in the earth's shadow,  

DLR